Location: Newark
(40.7060°N, 73.9980°W)
Time: 08:39:09
(UTC+00:00)

N. Korean satellite - Pass Details

Date: 24 November 2019
Orbit: 455 x 507 km, 97.2° (Epoch: 15 December)

Event Time Altitude Azimuth Distance (km) Brightness Sun altitude
Rises 22:25:56 0° 184° (S) 2,568 10.6 -10.2°
Reaches altitude 10° 22:28:05 10° 192° (SSW) 1,697 9.7 -10.6°
Maximum altitude 22:31:31 39° 262° (W) 774 8.3 -11.2°
Drops below altitude 10° 22:35:01 10° 332° (NNW) 1,726 9.5 -11.9°
Sets 22:37:14 0° 341° (NNW) 2,619 10.3 -12.3°
